Tracking 19831 objects as of 23-Aug-2019
HD Live streaming from Space Station
objects crossing your sky now

GALAXY 3R

Track GALAXY 3R now!
GALAXY 3R is classified as:


NORAD ID: 23741
Int'l Code: 1995-069A
Perigee: 35,792.9 km
Apogee: 35,819.4 km
Inclination: 10.9 °
Period: 1,436.7 minutes
Semi major axis: 42177 km
RCS: 12.3125 m2 (large)
Launch date: December 15, 1995
Source: United States (US)
Launch site: AIR FORCE EASTERN TEST RANGE (AFETR)

24 C-band, 16 Ku-band; North America, Caribbean; 140 television channels.
aabbcc
Your satellite tracking list
Your tracking list is empty




NASA's NSSDC Master Catalog

Two Line Element Set (TLE):
1 23741U 95069A   19235.41022090 -.00000208  00000-0  00000+0 0  9994
2 23741  10.9247  33.3485 0003145  29.6294 329.2316  1.00227440 86845
Source of the keplerian elements: AFSPC